nws-alerts: Checking more than four warning/county codes can delay the loading of your pages. You should use a cron job to get the data.
EllijayWeather Station Historical Data
Daily Summary for March 27, 2019 Units:  Metric    English   Both
Daily Weekly Monthly Yearly Custom
  High: Low: Average:
Temperature: 16.2 °C 5.2 °C 10.8 °C
Dew Point: 7 °C -1.9 °C 2.2 °C
Humidity: 83% 36% 58%
Wind Speed: 7.9km/h 0km/h 0.6km/h
Wind Gust: 14.5km/h - -
Wind- - SE
Pressure: 1030.7 hPa 1025.3 hPa -
Precipitation: 0 mm    
Historical Graphs
 
 
Tabular Data for March 27, 2019
Time Temperature Dew Point Pressure Wind Wind Speed Wind Gust Humidity Rainfall Rate (Hourly) solar
00:04 9.7 °C 6.6 °C 1025.3 hPa Calm     81% 0 mm meteobridge W/m2
00:09 9.7 °C 6.8 °C 1025.3 hPa Calm     82% 0 mm meteobridge W/m2
00:14 9.7 °C 6.8 °C 1025.3 hPa Calm     82% 0 mm meteobridge W/m2
00:19 9.6 °C 6.7 °C 1025.3 hPa Calm     82% 0 mm meteobridge W/m2
00:24 9.6 °C 6.7 °C 1025.3 hPa Calm     82% 0 mm meteobridge W/m2
00:29 9.6 °C 6.9 °C 1025.3 hPa Calm     83% 0 mm meteobridge W/m2
00:34 9.6 °C 6.9 °C 1025.3 hPa Calm     83% 0 mm meteobridge W/m2
00:39 9.6 °C 6.9 °C 1025.3 hPa Calm     83% 0 mm meteobridge W/m2
00:44 9.6 °C 6.9 °C 1025.3 hPa Calm     83% 0 mm meteobridge W/m2
00:49 9.7 °C 7 °C 1025.3 hPa Calm     83% 0 mm meteobridge W/m2
00:54 9.7 °C 6.6 °C 1025.3 hPa SSE 1.4 km/h 1.6 km/h 81% 0 mm meteobridge W/m2
00:59 9.8 °C 6.7 °C 1025.3 hPa Calm     81% 0 mm meteobridge W/m2
01:04 9.9 °C 6.8 °C 1025.3 hPa Calm     81% 0 mm meteobridge W/m2
01:09 9.9 °C 6.8 °C 1025.3 hPa Calm     81% 0 mm meteobridge W/m2
01:14 9.9 °C 6.4 °C 1025.3 hPa Calm   8 km/h 79% 0 mm meteobridge W/m2
01:19 9.9 °C 6.4 °C 1025.3 hPa Calm   1.6 km/h 79% 0 mm meteobridge W/m2
01:24 9.9 °C 6.2 °C 1025.3 hPa Calm   6.4 km/h 78% 0 mm meteobridge W/m2
01:29 9.9 °C 6.1 °C 1025.3 hPa SE 3.2 km/h 6.4 km/h 77% 0 mm meteobridge W/m2
01:34 10 °C 6.2 °C 1025.3 hPa Calm     77% 0 mm meteobridge W/m2
01:39 9.9 °C 5.9 °C 1025.3 hPa Calm   9.7 km/h 76% 0 mm meteobridge W/m2
01:44 10 °C 6 °C 1025.3 hPa Calm     76% 0 mm meteobridge W/m2
01:49 9.9 °C 5.7 °C 1025.3 hPa Calm   6.4 km/h 75% 0 mm meteobridge W/m2
01:54 9.9 °C 5.7 °C 1025.3 hPa SE 1.4 km/h 8 km/h 75% 0 mm meteobridge W/m2
01:59 9.9 °C 5.5 °C 1025.3 hPa Calm   6.4 km/h 74% 0 mm meteobridge W/m2
02:04 9.9 °C 5.7 °C 1025.6 hPa Calm   9.7 km/h 75% 0 mm meteobridge W/m2
02:09 9.8 °C 5.6 °C 1025.3 hPa SE 1.4 km/h 1.6 km/h 75% 0 mm meteobridge W/m2
02:14 9.8 °C 5.6 °C 1025.3 hPa Calm   8 km/h 75% 0 mm meteobridge W/m2
02:19 9.8 °C 5.6 °C 1025.6 hPa Calm   8 km/h 75% 0 mm meteobridge W/m2
02:24 9.8 °C 5.8 °C 1025.6 hPa ESE 3.2 km/h 3.2 km/h 76% 0 mm meteobridge W/m2
02:29 9.7 °C 5.7 °C 1025.6 hPa Calm   3.2 km/h 76% 0 mm meteobridge W/m2
02:34 9.7 °C 5.7 °C 1025.6 hPa Calm   8 km/h 76% 0 mm meteobridge W/m2
02:39 9.7 °C 5.7 °C 1025.6 hPa Calm   1.6 km/h 76% 0 mm meteobridge W/m2
02:44 9.6 °C 5.6 °C 1025.6 hPa Calm     76% 0 mm meteobridge W/m2
02:49 9.6 °C 5.6 °C 1025.6 hPa SE 1.4 km/h 8 km/h 76% 0 mm meteobridge W/m2
02:54 9.6 °C 5.4 °C 1025.3 hPa Calm   3.2 km/h 75% 0 mm meteobridge W/m2
02:59 9.6 °C 5.2 °C 1025.3 hPa SE 1.4 km/h 9.7 km/h 74% 0 mm meteobridge W/m2
03:04 9.5 °C 5.3 °C 1025.6 hPa Calm   3.2 km/h 75% 0 mm meteobridge W/m2
03:09 9.4 °C 5 °C 1025.6 hPa Calm   3.2 km/h 74% 0 mm meteobridge W/m2
03:14 9.4 °C 5 °C 1025.6 hPa Calm     74% 0 mm meteobridge W/m2
03:19 9.3 °C 4.5 °C 1025.6 hPa Calm   11.3 km/h 72% 0 mm meteobridge W/m2
03:24 9.3 °C 4.5 °C 1025.6 hPa Calm   1.6 km/h 72% 0 mm meteobridge W/m2
03:29 9.3 °C 4.5 °C 1025.6 hPa Calm     72% 0 mm meteobridge W/m2
03:34 9.3 °C 4.5 °C 1025.6 hPa Calm   6.4 km/h 72% 0 mm meteobridge W/m2
03:39 9.2 °C 4.6 °C 1025.6 hPa Calm     73% 0 mm meteobridge W/m2
03:44 9.2 °C 4.4 °C 1025.6 hPa Calm   8 km/h 72% 0 mm meteobridge W/m2
03:49 9.1 °C 4.5 °C 1025.6 hPa Calm     73% 0 mm meteobridge W/m2
03:54 9 °C 4.4 °C 1025.6 hPa Calm     73% 0 mm meteobridge W/m2
03:59 8.9 °C 4.5 °C 1025.6 hPa Calm     74% 0 mm meteobridge W/m2
04:04 8.8 °C 4.4 °C 1025.6 hPa Calm   3.2 km/h 74% 0 mm meteobridge W/m2
04:09 8.8 °C 4.4 °C 1025.6 hPa Calm     74% 0 mm meteobridge W/m2
04:14 8.8 °C 4.6 °C 1025.6 hPa Calm     75% 0 mm meteobridge W/m2
04:19 8.7 °C 4.5 °C 1025.6 hPa Calm     75% 0 mm meteobridge W/m2
04:24 8.7 °C 4.7 °C 1025.6 hPa Calm     76% 0 mm meteobridge W/m2
04:29 8.7 °C 4.7 °C 1025.6 hPa Calm     76% 0 mm meteobridge W/m2
04:34 8.7 °C 4.7 °C 1025.6 hPa Calm     76% 0 mm meteobridge W/m2
04:39 8.7 °C 4.7 °C 1026 hPa Calm   1.6 km/h 76% 0 mm meteobridge W/m2
04:44 8.6 °C 4.4 °C 1026 hPa Calm     75% 0 mm meteobridge W/m2
04:49 8.7 °C 4.7 °C 1026 hPa Calm     76% 0 mm meteobridge W/m2
04:54 8.7 °C 4.7 °C 1026 hPa Calm     76% 0 mm meteobridge W/m2
04:59 8.6 °C 4.6 °C 1026 hPa Calm     76% 0 mm meteobridge W/m2
05:04 8.6 °C 4.4 °C 1026 hPa ESE 3.2 km/h 3.2 km/h 75% 0 mm meteobridge W/m2
05:09 8.6 °C 4.4 °C 1026 hPa Calm   3.2 km/h 75% 0 mm meteobridge W/m2
05:14 8.5 °C 4.1 °C 1026 hPa Calm     74% 0 mm meteobridge W/m2
05:19 8.4 °C 4 °C 1026 hPa SSE 3.2 km/h 3.2 km/h 74% 0 mm meteobridge W/m2
05:24 8.4 °C 4.2 °C 1026 hPa Calm     75% 0 mm meteobridge W/m2
05:29 8.4 °C 4.2 °C 1026 hPa Calm     75% 0 mm meteobridge W/m2
05:34 8.4 °C 3.8 °C 1026 hPa Calm   8 km/h 73% 0 mm meteobridge W/m2
05:39 8.4 °C 3.8 °C 1026 hPa SE 1.4 km/h 8 km/h 73% 0 mm meteobridge W/m2
05:44 8.4 °C 3.8 °C 1026.3 hPa SE 7.9 km/h 9.7 km/h 73% 0 mm meteobridge W/m2
05:49 8.3 °C 3.7 °C 1026.3 hPa Calm     73% 0 mm meteobridge W/m2
05:54 8.3 °C 3.7 °C 1026.3 hPa Calm   1.6 km/h 73% 0 mm meteobridge W/m2
05:59 8.3 °C 3.7 °C 1026.3 hPa Calm   6.4 km/h 73% 0 mm meteobridge W/m2
06:04 8.3 °C 3.7 °C 1026.6 hPa Calm     73% 0 mm meteobridge W/m2
06:09 8.2 °C 3.5 °C 1026.6 hPa ESE 3.2 km/h 3.2 km/h 72% 0 mm meteobridge W/m2
06:14 8.3 °C 3.5 °C 1026.6 hPa Calm   6.4 km/h 72% 0 mm meteobridge W/m2
06:19 8.3 °C 3.5 °C 1027 hPa Calm     72% 0 mm meteobridge W/m2
06:24 8.3 °C 3.4 °C 1027 hPa Calm   3.2 km/h 71% 0 mm meteobridge W/m2
06:29 8.3 °C 3.4 °C 1027 hPa Calm     71% 0 mm meteobridge W/m2
06:34 8.3 °C 3.4 °C 1027 hPa Calm     71% 0 mm meteobridge W/m2
06:39 8.2 °C 3.1 °C 1027.3 hPa Calm   3.2 km/h 70% 0 mm meteobridge W/m2
06:44 8.2 °C 3.1 °C 1027.3 hPa Calm     70% 0 mm meteobridge W/m2
06:49 8.2 °C 3.1 °C 1027.3 hPa Calm     70% 0 mm meteobridge W/m2
06:54 8.1 °C 2.8 °C 1027.7 hPa Calm     69% 0 mm meteobridge W/m2
06:59 8.1 °C 2.8 °C 1027.7 hPa Calm     69% 0 mm meteobridge W/m2
07:04 8.1 °C 2.5 °C 1027.7 hPa Calm   1.6 km/h 68% 0 mm meteobridge W/m2
07:09 7.9 °C 2.4 °C 1027.7 hPa Calm   6.4 km/h 68% 0 mm meteobridge W/m2
07:14 7.8 °C 2.5 °C 1027.7 hPa Calm     69% 0 mm meteobridge W/m2
07:19 7.8 °C 2.3 °C 1028 hPa SE 1.4 km/h 6.4 km/h 68% 0 mm meteobridge W/m2
07:24 7.7 °C 2.2 °C 1028 hPa Calm   1.6 km/h 68% 0 mm meteobridge W/m2
07:29 7.7 °C 2.4 °C 1028.3 hPa Calm   1.6 km/h 69% 0 mm meteobridge W/m2
07:34 7.7 °C 2.4 °C 1028.3 hPa Calm   6.4 km/h 69% 0 mm meteobridge W/m2
07:39 7.7 °C 2.4 °C 1028.3 hPa East 7.9 km/h 8 km/h 69% 0 mm meteobridge W/m2
07:44 7.7 °C 2.2 °C 1028.3 hPa ESE 3.2 km/h 3.2 km/h 68% 0 mm meteobridge W/m2
07:49 7.7 °C 2.4 °C 1028.7 hPa Calm     69% 0 mm meteobridge W/m2
07:54 7.7 °C 2.2 °C 1028.7 hPa Calm     68% 0 mm meteobridge W/m2
07:59 7.6 °C 1.9 °C 1028.7 hPa ESE 3.2 km/h 6.4 km/h 67% 0 mm meteobridge W/m2
08:04 7.6 °C 1.4 °C 1028.7 hPa SE 6.4 km/h 6.4 km/h 65% 0 mm meteobridge W/m2
08:09 7.5 °C 1.3 °C 1028.7 hPa Calm   6.4 km/h 65% 0 mm meteobridge W/m2
08:14 7.4 °C 1 °C 1028.7 hPa ESE 6.4 km/h 6.4 km/h 64% 0 mm meteobridge W/m2
08:19 7.4 °C 0.8 °C 1029 hPa Calm   11.3 km/h 63% 0 mm meteobridge W/m2
08:24 7.6 °C 1 °C 1029 hPa Calm   8 km/h 63% 0 mm meteobridge W/m2
08:29 7.7 °C 1.1 °C 1029.3 hPa Calm   1.6 km/h 63% 0 mm meteobridge W/m2
08:34 7.7 °C 0.9 °C 1029.3 hPa SE 3.2 km/h 8 km/h 62% 0 mm meteobridge W/m2
08:39 7.8 °C 1.2 °C 1029.7 hPa Calm   8 km/h 63% 0 mm meteobridge W/m2
08:44 8 °C 1.2 °C 1029.7 hPa Calm   9.7 km/h 62% 0 mm meteobridge W/m2
08:49 8.1 °C 1.5 °C 1029.7 hPa Calm     63% 0 mm meteobridge W/m2
08:54 8.1 °C 1 °C 1029.7 hPa Calm   6.4 km/h 61% 0 mm meteobridge W/m2
08:59 8.1 °C 1.3 °C 1029.7 hPa Calm   1.6 km/h 62% 0 mm meteobridge W/m2
09:04 8.2 °C 1.4 °C 1029.7 hPa Calm   3.2 km/h 62% 0 mm meteobridge W/m2
09:09 8.2 °C 0.9 °C 1030 hPa SE 3.2 km/h 8 km/h 60% 0 mm meteobridge W/m2
09:14 8.2 °C 0.9 °C 1029.7 hPa Calm   6.4 km/h 60% 0 mm meteobridge W/m2
09:19 8.3 °C 0.8 °C 1029.7 hPa SE 7.9 km/h 8 km/h 59% 0 mm meteobridge W/m2
09:24 8.2 °C 0.4 °C 1029.7 hPa East 6.4 km/h 8 km/h 58% 0 mm meteobridge W/m2
09:29 8.2 °C 0.2 °C 1029.7 hPa Calm   1.6 km/h 57% 0 mm meteobridge W/m2
09:34 8.4 °C 0.1 °C 1030 hPa ESE 3.2 km/h 3.2 km/h 56% 0 mm meteobridge W/m2
09:39 8.4 °C 0.1 °C 1030 hPa SE 1.4 km/h 3.2 km/h 56% 0 mm meteobridge W/m2
09:44 8.4 °C -0.6 °C 1029.7 hPa Calm   8 km/h 53% 0 mm meteobridge W/m2
09:49 8.4 °C -1.4 °C 1029.7 hPa Calm   11.3 km/h 50% 0 mm meteobridge W/m2
09:54 8.4 °C -0.9 °C 1030 hPa Calm   6.4 km/h 52% 0 mm meteobridge W/m2
09:59 8.6 °C -0.7 °C 1030 hPa Calm   8 km/h 52% 0 mm meteobridge W/m2
10:04 8.8 °C -0.5 °C 1030 hPa Calm   6.4 km/h 52% 0 mm meteobridge W/m2
10:09 8.9 °C -1.5 °C 1030 hPa ESE 6.4 km/h 11.3 km/h 48% 0 mm meteobridge W/m2
10:14 8.7 °C -1.1 °C 1030 hPa Calm   8 km/h 50% 0 mm meteobridge W/m2
10:19 8.9 °C -1 °C 1030 hPa SE 7.9 km/h 9.7 km/h 50% 0 mm meteobridge W/m2
10:24 9.1 °C -1.3 °C 1030 hPa SSE 6.4 km/h 9.7 km/h 48% 0 mm meteobridge W/m2
10:29 9.3 °C -0.3 °C 1030 hPa ESE 6.4 km/h 6.4 km/h 51% 0 mm meteobridge W/m2
10:34 9.3 °C -0.6 °C 1030 hPa Calm     50% 0 mm meteobridge W/m2
10:39 9.3 °C -0.9 °C 1030 hPa East 6.4 km/h 14.5 km/h 49% 0 mm meteobridge W/m2
10:44 9.5 °C -1.3 °C 1030 hPa SE 1.4 km/h 11.3 km/h 47% 0 mm meteobridge W/m2
10:49 9.8 °C -1.6 °C 1030 hPa SE 6.4 km/h 14.5 km/h 45% 0 mm meteobridge W/m2
10:54 9.8 °C -1.9 °C 1030 hPa ESE 3.2 km/h 14.5 km/h 44% 0 mm meteobridge W/m2
10:59 10 °C -1.4 °C 1030.4 hPa Calm   3.2 km/h 45% 0 mm meteobridge W/m2
11:04 10.4 °C -1.6 °C 1030.4 hPa Calm   6.4 km/h 43% 0 mm meteobridge W/m2
11:09 10.4 °C -1.3 °C 1030 hPa Calm   8 km/h 44% 0 mm meteobridge W/m2
11:14 10.7 °C -1.1 °C 1030.4 hPa Calm   8 km/h 44% 0 mm meteobridge W/m2
11:19 11 °C -0.5 °C 1030.4 hPa Calm   1.6 km/h 45% 0 mm meteobridge W/m2
11:24 11.3 °C -1.2 °C 1030.4 hPa Calm   4.8 km/h 42% 0 mm meteobridge W/m2
11:29 11.4 °C -0.7 °C 1030.4 hPa SE 3.2 km/h 9.7 km/h 43% 0 mm meteobridge W/m2
11:34 11.5 °C -0.3 °C 1030.4 hPa Calm     44% 0 mm meteobridge W/m2
11:39 11.6 °C -0.9 °C 1030.7 hPa Calm     42% 0 mm meteobridge W/m2
11:44 11.7 °C -1.1 °C 1030.7 hPa Calm   4.8 km/h 41% 0 mm meteobridge W/m2
11:49 11.7 °C -0.5 °C 1030.7 hPa Calm   6.4 km/h 43% 0 mm meteobridge W/m2
11:54 11.7 °C -0.5 °C 1030.7 hPa Calm   1.6 km/h 43% 0 mm meteobridge W/m2
11:59 11.8 °C -0.4 °C 1030.4 hPa Calm   6.4 km/h 43% 0 mm meteobridge W/m2
12:04 12 °C -0.2 °C 1030.4 hPa Calm   3.2 km/h 43% 0 mm meteobridge W/m2
12:09 12.2 °C -0.3 °C 1030.4 hPa Calm   11.3 km/h 42% 0 mm meteobridge W/m2
12:14 12.3 °C 0.1 °C 1030.4 hPa ESE 1.4 km/h 6.4 km/h 43% 0 mm meteobridge W/m2
12:19 12.3 °C -0.6 °C 1030.4 hPa ESE 1.4 km/h 8 km/h 41% 0 mm meteobridge W/m2
12:24 12.4 °C -0.2 °C 1030 hPa Calm   6.4 km/h 42% 0 mm meteobridge W/m2
12:29 12.3 °C -0.6 °C 1030 hPa Calm   3.2 km/h 41% 0 mm meteobridge W/m2
12:34 12.5 °C -0.1 °C 1030 hPa ESE 1.4 km/h 3.2 km/h 42% 0 mm meteobridge W/m2
12:39 12.6 °C -0.3 °C 1030 hPa Calm     41% 0 mm meteobridge W/m2
12:44 12.8 °C -0.1 °C 1030 hPa ESE 3.2 km/h 6.4 km/h 41% 0 mm meteobridge W/m2
12:49 13 °C 0 °C 1030 hPa Calm     41% 0 mm meteobridge W/m2
12:54 13.2 °C -0.5 °C 1030 hPa Calm   1.6 km/h 39% 0 mm meteobridge W/m2
12:59 13.2 °C -0.1 °C 1029.7 hPa Calm     40% 0 mm meteobridge W/m2
13:04 13.4 °C 0.4 °C 1029.7 hPa Calm   3.2 km/h 41% 0 mm meteobridge W/m2
13:09 13.5 °C 0.2 °C 1029.7 hPa Calm   1.6 km/h 40% 0 mm meteobridge W/m2
13:14 13.7 °C 1 °C 1029.7 hPa Calm   1.6 km/h 42% 0 mm meteobridge W/m2
13:19 13.7 °C 0.7 °C 1029.3 hPa Calm     41% 0 mm meteobridge W/m2
13:24 14.1 °C 0.7 °C 1029.3 hPa Calm     40% 0 mm meteobridge W/m2
13:29 14.1 °C 0.3 °C 1029.3 hPa SSE 6.4 km/h 8 km/h 39% 0 mm meteobridge W/m2
13:34 14.1 °C 0.7 °C 1029.3 hPa NW 4.7 km/h 4.8 km/h 40% 0 mm meteobridge W/m2
13:39 14.1 °C 0.3 °C 1029.3 hPa Calm   6.4 km/h 39% 0 mm meteobridge W/m2
13:44 14.1 °C 0.3 °C 1029.3 hPa WNW 1.4 km/h 6.4 km/h 39% 0 mm meteobridge W/m2
13:49 14.2 °C 0.8 °C 1029.3 hPa Calm     40% 0 mm meteobridge W/m2
13:54 14.5 °C 0.7 °C 1029 hPa Calm   3.2 km/h 39% 0 mm meteobridge W/m2
13:59 14.6 °C 1.8 °C 1029 hPa SE 6.4 km/h 9.7 km/h 42% 0 mm meteobridge W/m2
14:04 14.6 °C 1.1 °C 1028.7 hPa Calm     40% 0 mm meteobridge W/m2
14:09 14.7 °C 0.9 °C 1028.7 hPa Calm     39% 0 mm meteobridge W/m2
14:14 14.8 °C 0.6 °C 1028.7 hPa NE 1.4 km/h 3.2 km/h 38% 0 mm meteobridge W/m2
14:19 15 °C 1.2 °C 1028.3 hPa ENE 1.4 km/h 1.6 km/h 39% 0 mm meteobridge W/m2
14:24 15.2 °C 1.7 °C 1028.3 hPa Calm     40% 0 mm meteobridge W/m2
14:29 15.4 °C 1.5 °C 1028.3 hPa ESE 1.4 km/h 6.4 km/h 39% 0 mm meteobridge W/m2
14:34 15.4 °C 1.1 °C 1028 hPa Calm   1.6 km/h 38% 0 mm meteobridge W/m2
14:39 15.4 °C 1.5 °C 1028 hPa NW 1.4 km/h 1.6 km/h 39% 0 mm meteobridge W/m2
14:44 15.4 °C 0.8 °C 1028 hPa ESE 3.2 km/h 6.4 km/h 37% 0 mm meteobridge W/m2
14:49 15.3 °C 1.4 °C 1027.7 hPa South 3.2 km/h 4.8 km/h 39% 0 mm meteobridge W/m2
14:54 15.4 °C 1.1 °C 1027.7 hPa Calm   3.2 km/h 38% 0 mm meteobridge W/m2
14:59 15.6 °C 1.3 °C 1027.7 hPa ESE 6.4 km/h 6.4 km/h 38% 0 mm meteobridge W/m2
15:04 15.7 °C 1 °C 1027.3 hPa NW 1.4 km/h 1.6 km/h 37% 0 mm meteobridge W/m2
15:09 15.8 °C 1.9 °C 1027.3 hPa Calm   1.6 km/h 39% 0 mm meteobridge W/m2
15:14 16 °C 1.7 °C 1027.3 hPa Calm   1.6 km/h 38% 0 mm meteobridge W/m2
15:19 16 °C 1.7 °C 1027.3 hPa Calm   3.2 km/h 38% 0 mm meteobridge W/m2
15:24 16 °C 2 °C 1027.3 hPa Calm     39% 0 mm meteobridge W/m2
15:29 15.9 °C 1.6 °C 1027.3 hPa Calm   1.6 km/h 38% 0 mm meteobridge W/m2
15:34 16.1 °C 1.8 °C 1027.3 hPa NE 3.2 km/h 4.8 km/h 38% 0 mm meteobridge W/m2
15:39 16.1 °C 1 °C 1027.3 hPa Calm     36% 0 mm meteobridge W/m2
15:44 15.9 °C 1.2 °C 1027 hPa Calm   6.4 km/h 37% 0 mm meteobridge W/m2
15:49 16.1 °C 2.1 °C 1027 hPa Calm   3.2 km/h 39% 0 mm meteobridge W/m2
15:54 16.2 °C 1.5 °C 1027 hPa Calm   1.6 km/h 37% 0 mm meteobridge W/m2
15:59 16.2 °C 1.5 °C 1027 hPa East 3.2 km/h 6.4 km/h 37% 0 mm meteobridge W/m2
16:04 16.1 °C 1.4 °C 1027 hPa Calm   1.6 km/h 37% 0 mm meteobridge W/m2
16:09 16.1 °C 1 °C 1027 hPa Calm     36% 0 mm meteobridge W/m2
16:14 16.1 °C 1.4 °C 1027 hPa Calm   1.6 km/h 37% 0 mm meteobridge W/m2
16:19 16.2 °C 1.1 °C 1027 hPa ESE 1.4 km/h 1.6 km/h 36% 0 mm meteobridge W/m2
16:24 16.1 °C 1.4 °C 1027 hPa Calm   1.6 km/h 37% 0 mm meteobridge W/m2
16:29 16.1 °C 1.4 °C 1027 hPa East 1.4 km/h 1.6 km/h 37% 0 mm meteobridge W/m2
16:34 16.1 °C 1.8 °C 1027 hPa ESE 1.4 km/h 6.4 km/h 38% 0 mm meteobridge W/m2
16:39 16 °C 1.3 °C 1027 hPa Calm   1.6 km/h 37% 0 mm meteobridge W/m2
16:44 16.1 °C 1.8 °C 1027 hPa Calm     38% 0 mm meteobridge W/m2
16:49 16.1 °C 1.4 °C 1027 hPa Calm   6.4 km/h 37% 0 mm meteobridge W/m2
16:54 16.1 °C 1.4 °C 1027 hPa Calm     37% 0 mm meteobridge W/m2
16:59 16 °C 1.7 °C 1026.6 hPa Calm   1.6 km/h 38% 0 mm meteobridge W/m2
17:04 16.1 °C 1.4 °C 1027 hPa Calm     37% 0 mm meteobridge W/m2
17:09 16 °C 1.3 °C 1026.6 hPa ESE 1.4 km/h 1.6 km/h 37% 0 mm meteobridge W/m2
17:14 16.1 °C 1.8 °C 1026.6 hPa Calm   1.6 km/h 38% 0 mm meteobridge W/m2
17:19 16.1 °C 1.8 °C 1026.6 hPa Calm     38% 0 mm meteobridge W/m2
17:24 16.2 °C 1.9 °C 1026.6 hPa Calm     38% 0 mm meteobridge W/m2
17:29 16.1 °C 1.4 °C 1026.6 hPa ESE 1.4 km/h 6.4 km/h 37% 0 mm meteobridge W/m2
17:34 16 °C 1.3 °C 1027 hPa Calm     37% 0 mm meteobridge W/m2
17:39 15.9 °C 1.2 °C 1027 hPa Calm     37% 0 mm meteobridge W/m2
17:44 15.9 °C 2 °C 1026.6 hPa Calm     39% 0 mm meteobridge W/m2
17:49 15.9 °C 1.2 °C 1026.6 hPa Calm     37% 0 mm meteobridge W/m2
17:54 15.8 °C 1.1 °C 1026.6 hPa Calm   1.6 km/h 37% 0 mm meteobridge W/m2
17:59 15.8 °C 1.5 °C 1026.6 hPa Calm   1.6 km/h 38% 0 mm meteobridge W/m2
18:04 15.8 °C 1.1 °C 1026.6 hPa Calm     37% 0 mm meteobridge W/m2
18:09 15.8 °C 1.9 °C 1027 hPa Calm     39% 0 mm meteobridge W/m2
18:14 15.8 °C 1.5 °C 1027 hPa Calm     38% 0 mm meteobridge W/m2
18:19 15.7 °C 1.8 °C 1027 hPa Calm     39% 0 mm meteobridge W/m2
18:24 15.6 °C 1.3 °C 1027 hPa Calm     38% 0 mm meteobridge W/m2
18:29 15.4 °C 1.5 °C 1027 hPa Calm     39% 0 mm meteobridge W/m2
18:34 15.3 °C 1.8 °C 1027 hPa Calm     40% 0 mm meteobridge W/m2
18:39 15.3 °C 1.8 °C 1027 hPa Calm   1.6 km/h 40% 0 mm meteobridge W/m2
18:44 15.1 °C 1.9 °C 1027 hPa Calm     41% 0 mm meteobridge W/m2
18:49 15 °C 2.2 °C 1027 hPa Calm   1.6 km/h 42% 0 mm meteobridge W/m2
18:54 14.9 °C 1.4 °C 1027 hPa Calm     40% 0 mm meteobridge W/m2
18:59 14.8 °C 1.3 °C 1027 hPa Calm     40% 0 mm meteobridge W/m2
19:04 14.8 °C 1.3 °C 1027.3 hPa Calm     40% 0 mm meteobridge W/m2
19:09 14.7 °C 1.6 °C 1027.3 hPa Calm     41% 0 mm meteobridge W/m2
19:14 14.6 °C 1.8 °C 1027.3 hPa Calm   1.6 km/h 42% 0 mm meteobridge W/m2
19:19 14.4 °C 1.6 °C 1027.3 hPa Calm     42% 0 mm meteobridge W/m2
19:24 14.3 °C 1.2 °C 1027.3 hPa Calm     41% 0 mm meteobridge W/m2
19:29 14.1 °C 1.4 °C 1027.3 hPa Calm     42% 0 mm meteobridge W/m2
19:34 14 °C 1.6 °C 1027.3 hPa Calm     43% 0 mm meteobridge W/m2
19:39 13.8 °C 1.8 °C 1027.3 hPa Calm     44% 0 mm meteobridge W/m2
19:44 13.6 °C 1.9 °C 1027.3 hPa Calm     45% 0 mm meteobridge W/m2
19:49 13.4 °C 1.7 °C 1027.3 hPa Calm     45% 0 mm meteobridge W/m2
19:54 13.2 °C 1.8 °C 1027.3 hPa Calm     46% 0 mm meteobridge W/m2
19:59 13 °C 1.9 °C 1027.3 hPa Calm     47% 0 mm meteobridge W/m2
20:04 12.8 °C 1.8 °C 1027.7 hPa Calm     47% 0 mm meteobridge W/m2
20:09 12.6 °C 1.9 °C 1027.7 hPa Calm     48% 0 mm meteobridge W/m2
20:14 12.4 °C 2 °C 1027.7 hPa Calm     49% 0 mm meteobridge W/m2
20:19 12.2 °C 2.1 °C 1027.7 hPa Calm     50% 0 mm meteobridge W/m2
20:24 11.8 °C 2 °C 1027.7 hPa Calm     51% 0 mm meteobridge W/m2
20:29 11.6 °C 2.1 °C 1027.7 hPa Calm     52% 0 mm meteobridge W/m2
20:34 11.4 °C 2.4 °C 1027.7 hPa Calm     54% 0 mm meteobridge W/m2
20:39 11.1 °C 2.4 °C 1027.7 hPa Calm     55% 0 mm meteobridge W/m2
20:44 10.7 °C 2 °C 1027.7 hPa Calm     55% 0 mm meteobridge W/m2
20:49 10.4 °C 2.2 °C 1027.7 hPa Calm     57% 0 mm meteobridge W/m2
20:54 10.1 °C 2.4 °C 1027.7 hPa Calm     59% 0 mm meteobridge W/m2
20:59 9.9 °C 2.3 °C 1028 hPa Calm     59% 0 mm meteobridge W/m2
21:04 9.7 °C 2.3 °C 1028 hPa Calm     60% 0 mm meteobridge W/m2
21:09 9.5 °C 2.4 °C 1028 hPa Calm     61% 0 mm meteobridge W/m2
21:14 9.3 °C 2.4 °C 1028 hPa Calm     62% 0 mm meteobridge W/m2
21:19 9.1 °C 2.2 °C 1028 hPa Calm     62% 0 mm meteobridge W/m2
21:24 8.9 °C 2.2 °C 1028 hPa Calm     63% 0 mm meteobridge W/m2
21:29 8.7 °C 2.5 °C 1028 hPa Calm     65% 0 mm meteobridge W/m2
21:34 8.4 °C 2 °C 1028.3 hPa Calm     64% 0 mm meteobridge W/m2
21:39 8.3 °C 1.9 °C 1028.3 hPa Calm     64% 0 mm meteobridge W/m2
21:44 8.2 °C 1.8 °C 1028.3 hPa Calm     64% 0 mm meteobridge W/m2
21:49 8 °C 2 °C 1028.3 hPa Calm     66% 0 mm meteobridge W/m2
21:54 7.8 °C 1.8 °C 1028.3 hPa Calm     66% 0 mm meteobridge W/m2
21:59 7.7 °C 2 °C 1028.3 hPa Calm     67% 0 mm meteobridge W/m2
22:04 7.6 °C 1.9 °C 1028.7 hPa Calm     67% 0 mm meteobridge W/m2
22:09 7.4 °C 2.1 °C 1028.7 hPa Calm     69% 0 mm meteobridge W/m2
22:14 7.3 °C 2 °C 1028.7 hPa Calm     69% 0 mm meteobridge W/m2
22:19 7.2 °C 2.1 °C 1028.7 hPa Calm     70% 0 mm meteobridge W/m2
22:24 6.9 °C 1.8 °C 1028.3 hPa Calm     70% 0 mm meteobridge W/m2
22:29 6.8 °C 1.9 °C 1028.7 hPa Calm     71% 0 mm meteobridge W/m2
22:34 6.7 °C 2 °C 1028.7 hPa Calm     72% 0 mm meteobridge W/m2
22:39 6.6 °C 2.1 °C 1028.7 hPa Calm     73% 0 mm meteobridge W/m2
22:44 6.5 °C 2 °C 1028.7 hPa Calm     73% 0 mm meteobridge W/m2
22:49 6.4 °C 1.7 °C 1028.7 hPa Calm     72% 0 mm meteobridge W/m2
22:54 6.3 °C 1.8 °C 1028.7 hPa Calm     73% 0 mm meteobridge W/m2
22:59 6.3 °C 1.8 °C 1028.7 hPa Calm     73% 0 mm meteobridge W/m2
23:04 6.2 °C 1.5 °C 1028.7 hPa Calm     72% 0 mm meteobridge W/m2
23:09 6.1 °C 1.6 °C 1028.7 hPa Calm     73% 0 mm meteobridge W/m2
23:14 5.9 °C 1.4 °C 1028.7 hPa Calm     73% 0 mm meteobridge W/m2
23:19 5.8 °C 1.3 °C 1028.7 hPa Calm     73% 0 mm meteobridge W/m2
23:24 5.8 °C 1.3 °C 1029 hPa Calm     73% 0 mm meteobridge W/m2
23:29 5.7 °C 1.4 °C 1029 hPa Calm     74% 0 mm meteobridge W/m2
23:34 5.7 °C 1.2 °C 1029 hPa Calm     73% 0 mm meteobridge W/m2
23:39 5.6 °C 1.1 °C 1029 hPa Calm     73% 0 mm meteobridge W/m2
23:44 5.5 °C 1 °C 1029.3 hPa Calm     73% 0 mm meteobridge W/m2
23:49 5.3 °C 1 °C 1029.3 hPa Calm     74% 0 mm meteobridge W/m2
23:54 5.2 °C 1.3 °C 1029.3 hPa Calm     76% 0 mm meteobridge W/m2
23:59 5.2 °C 1.3 °C 1029.3 hPa Calm     76% 0 mm meteobridge W/m2
EllijayWeather
Compliments of Weather Underground - 2.5 mb